TimePST,TemperatureF,Dew PointF,Humidity,Sea Level PressureIn,VisibilityMPH,Wind Direction,Wind SpeedMPH,Gust SpeedMPH,PrecipitationIn,Events,Conditions,WindDirDegrees,DateUTC
12:53 AM,35.1,32.0,89,29.96,-9999.0,NNW,8.1,-,N/A,,Unknown,330,2013-03-04 08:53:00
1:53 AM,35.1,30.9,85,29.96,-9999.0,NNW,10.4,-,N/A,,Unknown,340,2013-03-04 09:53:00
2:53 AM,34.0,30.0,85,29.97,-9999.0,NNW,8.1,-,N/A,,Unknown,330,2013-03-04 10:53:00
3:53 AM,34.0,28.9,82,29.98,-9999.0,NNW,8.1,-,N/A,,Unknown,330,2013-03-04 11:53:00
4:53 AM,33.1,28.9,85,30.01,-9999.0,North,5.8,-,N/A,,Unknown,350,2013-03-04 12:53:00
5:53 AM,32.0,28.0,85,30.04,-9999.0,North,5.8,-,N/A,,Unknown,10,2013-03-04 13:53:00
6:53 AM,30.9,27.0,85,30.07,-9999.0,NNE,3.5,-,N/A,,Unknown,30,2013-03-04 14:53:00
7:53 AM,35.1,28.0,76,30.07,-9999.0,NE,3.5,-,N/A,,Unknown,40,2013-03-04 15:53:00
8:53 AM,35.1,26.1,70,30.08,-9999.0,East,3.5,-,N/A,,Unknown,100,2013-03-04 16:53:00
9:53 AM,37.0,27.0,67,30.09,-9999.0,East,4.6,-,N/A,,Unknown,80,2013-03-04 17:53:00
10:53 AM,39.0,25.0,57,30.09,-9999.0,ENE,5.8,-,N/A,,Unknown,70,2013-03-04 18:53:00
11:53 AM,39.0,25.0,57,30.10,-9999.0,East,6.9,-,N/A,,Unknown,90,2013-03-04 19:53:00
12:53 PM,39.9,25.0,55,30.08,-9999.0,East,5.8,-,N/A,,Unknown,80,2013-03-04 20:53:00
1:53 PM,41.0,25.0,53,30.07,-9999.0,ENE,5.8,-,N/A,,Unknown,70,2013-03-04 21:53:00
2:53 PM,43.0,27.0,53,30.07,-9999.0,NNE,8.1,-,N/A,,Unknown,30,2013-03-04 22:53:00
3:53 PM,44.1,26.1,49,30.06,-9999.0,Calm,Calm,-,N/A,,Unknown,0,2013-03-04 23:53:00
4:00 PM,-9999,-9999,N/A,-9999,-9999.0,North,-9999.0,-,N/A,,Unknown,0,2013-03-05 00:00:00
4:53 PM,44.1,26.1,49,30.05,-9999.0,NNW,3.5,-,N/A,,Unknown,340,2013-03-05 00:53:00
5:53 PM,37.9,26.1,62,30.09,-9999.0,Calm,Calm,-,N/A,,Unknown,0,2013-03-05 01:53:00
6:53 PM,33.1,27.0,78,30.12,-9999.0,NNW,5.8,-,N/A,,Unknown,340,2013-03-05 02:53:00
7:53 PM,30.9,25.0,79,30.11,-9999.0,Calm,Calm,-,N/A,,Unknown,0,2013-03-05 03:53:00
8:53 PM,28.0,25.0,88,30.12,-9999.0,Calm,Calm,-,N/A,,Unknown,0,2013-03-05 04:53:00
9:53 PM,28.0,25.0,88,30.12,-9999.0,Calm,Calm,-,N/A,,Unknown,0,2013-03-05 05:53:00
10:53 PM,26.1,23.0,88,30.10,-9999.0,SW,5.8,-,N/A,,Unknown,220,2013-03-05 06:53:00
11:53 PM,26.1,23.0,88,30.09,-9999.0,SSW,4.6,-,N/A,,Unknown,210,2013-03-05 07:53:00